Year,Month,Day,Hour,Minute,Value (Times are PST for windspeed in km/hr)
2008,12,28,00,00,5.20
2008,12,28,00,01,3.80
2008,12,28,00,02,2.70
2008,12,28,00,03,5.00
2008,12,28,00,04,2.10
2008,12,28,00,05,4.30
2008,12,28,00,06,2.90
2008,12,28,00,07,2.40
2008,12,28,00,08,0.90
2008,12,28,00,09,2.70
2008,12,28,00,10,2.00
2008,12,28,00,11,1.70
2008,12,28,00,12,0.00
2008,12,28,00,13,5.30
2008,12,28,00,14,4.50
2008,12,28,00,15,5.10
2008,12,28,00,16,4.00
2008,12,28,00,17,6.20
2008,12,28,00,18,5.30
2008,12,28,00,19,2.70
2008,12,28,00,20,4.80
2008,12,28,00,21,3.70
2008,12,28,00,22,3.10
2008,12,28,00,23,6.10
2008,12,28,00,24,4.40
2008,12,28,00,25,3.60
2008,12,28,00,26,6.20
2008,12,28,00,27,2.60
2008,12,28,00,28,1.10
2008,12,28,00,29,1.70
2008,12,28,00,30,0.40
2008,12,28,00,31,2.90
2008,12,28,00,32,6.10
2008,12,28,00,33,5.30
2008,12,28,00,34,1.30
2008,12,28,00,35,1.30
2008,12,28,00,36,3.00
2008,12,28,00,37,3.30
2008,12,28,00,38,1.60
2008,12,28,00,39,2.60
2008,12,28,00,40,1.40
2008,12,28,00,41,1.40
2008,12,28,00,42,1.00
2008,12,28,00,43,2.30
2008,12,28,00,44,1.30
2008,12,28,00,45,0.60
2008,12,28,00,46,0.00
2008,12,28,00,47,0.00
2008,12,28,00,48,0.10
2008,12,28,00,49,3.90
2008,12,28,00,50,2.70
2008,12,28,00,51,0.60
2008,12,28,00,52,0.10
2008,12,28,00,53,0.00
2008,12,28,00,54,0.00
2008,12,28,00,55,1.80
2008,12,28,00,56,0.70
2008,12,28,00,57,0.00
2008,12,28,00,58,1.20
2008,12,28,00,59,0.00
2008,12,28,01,00,0.00
2008,12,28,01,01,0.00
2008,12,28,01,02,0.10
2008,12,28,01,03,0.00
2008,12,28,01,04,0.50
2008,12,28,01,05,4.50
2008,12,28,01,06,0.90
2008,12,28,01,07,1.10
2008,12,28,01,08,0.90
2008,12,28,01,09,5.10
2008,12,28,01,10,2.50
2008,12,28,01,11,0.00
2008,12,28,01,12,2.50
2008,12,28,01,13,2.40
2008,12,28,01,14,0.00
2008,12,28,01,15,0.30
2008,12,28,01,16,1.90
2008,12,28,01,17,0.40
2008,12,28,01,18,0.20
2008,12,28,01,19,0.00
2008,12,28,01,20,0.10
2008,12,28,01,21,0.00
2008,12,28,01,22,0.10
2008,12,28,01,23,3.10
2008,12,28,01,24,3.50
2008,12,28,01,25,3.00
2008,12,28,01,26,0.30
2008,12,28,01,27,0.20
2008,12,28,01,28,0.90
2008,12,28,01,29,2.90
2008,12,28,01,30,0.60
2008,12,28,01,31,0.60
2008,12,28,01,32,0.10
2008,12,28,01,33,0.60
2008,12,28,01,34,0.10
2008,12,28,01,35,0.00
2008,12,28,01,36,0.00
2008,12,28,01,37,0.00
2008,12,28,01,38,0.00
2008,12,28,01,39,0.40
2008,12,28,01,40,0.00
2008,12,28,01,41,0.00
2008,12,28,01,42,0.60
2008,12,28,01,43,0.10
2008,12,28,01,44,0.00
2008,12,28,01,45,2.30
2008,12,28,01,46,0.60
2008,12,28,01,47,1.90
2008,12,28,01,48,2.20
2008,12,28,01,49,2.20
2008,12,28,01,50,3.00
2008,12,28,01,51,3.40
2008,12,28,01,52,3.90
2008,12,28,01,53,2.10
2008,12,28,01,54,1.30
2008,12,28,01,55,3.30
2008,12,28,01,56,3.50
2008,12,28,01,57,2.10
2008,12,28,01,58,4.90
2008,12,28,01,59,4.00
2008,12,28,02,00,2.20
2008,12,28,02,01,3.90
2008,12,28,02,02,3.60
2008,12,28,02,03,5.10
2008,12,28,02,04,3.80
2008,12,28,02,05,3.30
2008,12,28,02,06,3.80
2008,12,28,02,07,2.90
2008,12,28,02,08,3.20
2008,12,28,02,09,2.60
2008,12,28,02,10,2.30
2008,12,28,02,11,4.90
2008,12,28,02,12,4.30
2008,12,28,02,13,3.00
2008,12,28,02,14,3.10
2008,12,28,02,15,3.20
2008,12,28,02,16,6.40
2008,12,28,02,17,5.40
2008,12,28,02,18,5.20
2008,12,28,02,19,2.60
2008,12,28,02,20,3.80
2008,12,28,02,21,3.00
2008,12,28,02,22,3.80
2008,12,28,02,23,3.80
2008,12,28,02,24,4.60
2008,12,28,02,25,5.80
2008,12,28,02,26,6.70
2008,12,28,02,27,4.00
2008,12,28,02,28,3.20
2008,12,28,02,29,3.70
2008,12,28,02,30,3.40
2008,12,28,02,31,3.60
2008,12,28,02,32,2.40
2008,12,28,02,33,5.20
2008,12,28,02,34,5.80
2008,12,28,02,35,5.60
2008,12,28,02,36,4.70
2008,12,28,02,37,3.80
2008,12,28,02,38,3.80
2008,12,28,02,39,4.90
2008,12,28,02,40,5.00
2008,12,28,02,41,3.70
2008,12,28,02,42,5.60
2008,12,28,02,43,5.00
2008,12,28,02,44,4.40
2008,12,28,02,45,5.10
2008,12,28,02,46,7.40
2008,12,28,02,47,5.00
2008,12,28,02,48,5.60
2008,12,28,02,49,4.50
2008,12,28,02,50,4.30
2008,12,28,02,51,7.10
2008,12,28,02,52,4.90
2008,12,28,02,53,3.70
2008,12,28,02,54,4.70
2008,12,28,02,55,5.60
2008,12,28,02,56,4.10
2008,12,28,02,57,5.80
2008,12,28,02,58,6.20
2008,12,28,02,59,7.50
2008,12,28,03,00,6.60
2008,12,28,03,01,3.90
2008,12,28,03,02,7.50
2008,12,28,03,03,8.70
2008,12,28,03,04,9.10
2008,12,28,03,05,6.00
2008,12,28,03,06,5.80
2008,12,28,03,07,4.60
2008,12,28,03,08,6.80
2008,12,28,03,09,8.20
2008,12,28,03,10,5.60
2008,12,28,03,11,6.30
2008,12,28,03,12,6.60
2008,12,28,03,13,6.40
2008,12,28,03,14,6.80
2008,12,28,03,15,4.80
2008,12,28,03,16,6.90
2008,12,28,03,17,6.60
2008,12,28,03,18,5.50
2008,12,28,03,19,5.40
2008,12,28,03,20,7.70
2008,12,28,03,21,6.20
2008,12,28,03,22,6.80
2008,12,28,03,23,7.30
2008,12,28,03,24,7.40
2008,12,28,03,25,6.80
2008,12,28,03,26,8.80
2008,12,28,03,27,6.10
2008,12,28,03,28,5.90
2008,12,28,03,29,8.60
2008,12,28,03,30,7.90
2008,12,28,03,31,7.00
2008,12,28,03,32,6.10
2008,12,28,03,33,4.30
2008,12,28,03,34,6.40
2008,12,28,03,35,7.40
2008,12,28,03,36,4.60
2008,12,28,03,37,4.30
2008,12,28,03,38,6.00
2008,12,28,03,39,5.80
2008,12,28,03,40,8.20
2008,12,28,03,41,5.00
2008,12,28,03,42,5.70
2008,12,28,03,43,5.40
2008,12,28,03,44,7.30
2008,12,28,03,45,5.80
2008,12,28,03,46,6.20
2008,12,28,03,47,4.70
2008,12,28,03,48,5.80
2008,12,28,03,49,5.20
2008,12,28,03,50,3.00
2008,12,28,03,51,4.40
2008,12,28,03,52,5.80
2008,12,28,03,53,6.60
2008,12,28,03,54,6.40
2008,12,28,03,55,4.10
2008,12,28,03,56,7.10
2008,12,28,03,57,6.70
2008,12,28,03,58,5.50
2008,12,28,03,59,5.90
2008,12,28,04,00,9.90
2008,12,28,04,01,10.30
2008,12,28,04,02,4.70
2008,12,28,04,03,7.20
2008,12,28,04,04,6.00
2008,12,28,04,05,5.70
2008,12,28,04,06,5.80
2008,12,28,04,07,7.90
2008,12,28,04,08,5.60
2008,12,28,04,09,6.00
2008,12,28,04,10,6.10
2008,12,28,04,11,7.00
2008,12,28,04,12,7.90
2008,12,28,04,13,5.90
2008,12,28,04,14,8.40
2008,12,28,04,15,8.80
2008,12,28,04,16,9.70
2008,12,28,04,17,8.20
2008,12,28,04,18,6.80
2008,12,28,04,19,3.80
2008,12,28,04,20,5.30
2008,12,28,04,21,3.80
2008,12,28,04,22,4.40
2008,12,28,04,23,5.10
2008,12,28,04,24,5.60
2008,12,28,04,25,6.00
2008,12,28,04,26,6.00
2008,12,28,04,27,7.50
2008,12,28,04,28,6.00
2008,12,28,04,29,4.20
2008,12,28,04,30,3.00
2008,12,28,04,31,3.50
2008,12,28,04,32,8.60
2008,12,28,04,33,7.50
2008,12,28,04,34,5.90
2008,12,28,04,35,3.30
2008,12,28,04,36,9.40
2008,12,28,04,37,8.50
2008,12,28,04,38,9.20
2008,12,28,04,39,7.80
2008,12,28,04,40,6.70
2008,12,28,04,41,6.30
2008,12,28,04,42,6.40
2008,12,28,04,43,8.80
2008,12,28,04,44,4.40
2008,12,28,04,45,5.30
2008,12,28,04,46,3.90
2008,12,28,04,47,4.20
2008,12,28,04,48,8.40
2008,12,28,04,49,4.10
2008,12,28,04,50,1.90
2008,12,28,04,51,5.70
2008,12,28,04,52,2.50
2008,12,28,04,53,3.10
2008,12,28,04,54,2.10
2008,12,28,04,55,0.80
2008,12,28,04,56,4.20
2008,12,28,04,57,0.80
2008,12,28,04,58,1.10
2008,12,28,04,59,1.80
2008,12,28,05,00,5.10
2008,12,28,05,01,2.10
2008,12,28,05,02,1.20
2008,12,28,05,03,1.00
2008,12,28,05,04,2.60
2008,12,28,05,05,2.30
2008,12,28,05,06,4.60
2008,12,28,05,07,1.70
2008,12,28,05,08,3.50
2008,12,28,05,09,3.10
2008,12,28,05,10,1.50
2008,12,28,05,11,0.30
2008,12,28,05,12,0.70
2008,12,28,05,13,2.10
2008,12,28,05,14,1.90
2008,12,28,05,15,2.10
2008,12,28,05,16,3.90
2008,12,28,05,17,2.80
2008,12,28,05,18,3.50
2008,12,28,05,19,3.90
2008,12,28,05,20,1.40
2008,12,28,05,21,1.90
2008,12,28,05,22,6.00
2008,12,28,05,23,1.70
2008,12,28,05,24,0.10
2008,12,28,05,25,0.10
2008,12,28,05,26,2.00
2008,12,28,05,27,0.50
2008,12,28,05,28,0.10
2008,12,28,05,29,2.10
2008,12,28,05,30,0.80
2008,12,28,05,31,0.20
2008,12,28,05,32,2.30
2008,12,28,05,33,2.50
2008,12,28,05,34,2.60
2008,12,28,05,35,1.90
2008,12,28,05,36,1.50
2008,12,28,05,37,3.40
2008,12,28,05,38,4.50
2008,12,28,05,39,1.40
2008,12,28,05,40,4.70
2008,12,28,05,41,5.40
2008,12,28,05,42,5.20
2008,12,28,05,43,4.00
2008,12,28,05,44,8.30
2008,12,28,05,45,9.20
2008,12,28,05,46,8.60
2008,12,28,05,47,8.90
2008,12,28,05,48,8.00
2008,12,28,05,49,11.70
2008,12,28,05,50,4.90
2008,12,28,05,51,5.10
2008,12,28,05,52,6.60
2008,12,28,05,53,7.90
2008,12,28,05,54,10.80
2008,12,28,05,55,8.20
2008,12,28,05,56,7.20
2008,12,28,05,57,8.70
2008,12,28,05,58,5.30
2008,12,28,05,59,6.60
2008,12,28,06,00,6.60
2008,12,28,06,01,10.00
2008,12,28,06,02,8.70
2008,12,28,06,03,5.80
2008,12,28,06,04,5.40
2008,12,28,06,05,5.40
2008,12,28,06,06,6.80
2008,12,28,06,07,3.70
2008,12,28,06,08,5.30
2008,12,28,06,09,5.50
2008,12,28,06,10,4.10
2008,12,28,06,11,3.70
2008,12,28,06,12,4.00
2008,12,28,06,13,3.10
2008,12,28,06,14,5.20
2008,12,28,06,15,6.30
2008,12,28,06,16,9.00
2008,12,28,06,17,6.90
2008,12,28,06,18,10.50
2008,12,28,06,19,7.60
2008,12,28,06,20,6.10
2008,12,28,06,21,2.00
2008,12,28,06,22,4.00
2008,12,28,06,23,4.80
2008,12,28,06,24,4.20
2008,12,28,06,25,4.90
2008,12,28,06,26,5.50
2008,12,28,06,27,3.20
2008,12,28,06,28,6.90
2008,12,28,06,29,5.30
2008,12,28,06,30,4.80
2008,12,28,06,31,4.60
2008,12,28,06,32,5.30
2008,12,28,06,33,7.10
2008,12,28,06,34,7.10
2008,12,28,06,35,6.80
2008,12,28,06,36,6.10
2008,12,28,06,37,6.10
2008,12,28,06,38,4.30
2008,12,28,06,39,5.80
2008,12,28,06,40,13.20
2008,12,28,06,41,8.80
2008,12,28,06,42,7.50
2008,12,28,06,43,7.20
2008,12,28,06,44,5.60
2008,12,28,06,45,6.90
2008,12,28,06,46,7.60
2008,12,28,06,47,3.40
2008,12,28,06,48,4.00
2008,12,28,06,49,4.70
2008,12,28,06,50,6.80
2008,12,28,06,51,5.00
2008,12,28,06,52,6.30
2008,12,28,06,53,4.30
2008,12,28,06,54,6.80
2008,12,28,06,55,8.00
2008,12,28,06,56,5.50
2008,12,28,06,57,7.30
2008,12,28,06,58,7.60
2008,12,28,06,59,6.00
2008,12,28,07,00,6.20
2008,12,28,07,01,7.20
2008,12,28,07,02,7.80
2008,12,28,07,03,7.40
2008,12,28,07,04,7.60
2008,12,28,07,05,5.10
2008,12,28,07,06,6.00
2008,12,28,07,07,11.50
2008,12,28,07,08,9.60
2008,12,28,07,09,9.70
2008,12,28,07,10,8.10
2008,12,28,07,11,7.40
2008,12,28,07,12,8.50
2008,12,28,07,13,7.50
2008,12,28,07,14,9.40
2008,12,28,07,15,12.40
2008,12,28,07,16,10.90
2008,12,28,07,17,8.00
2008,12,28,07,18,7.00
2008,12,28,07,19,8.30
2008,12,28,07,20,9.30
2008,12,28,07,21,7.60
2008,12,28,07,22,5.60
2008,12,28,07,23,5.70
2008,12,28,07,24,5.80
2008,12,28,07,25,7.70
2008,12,28,07,26,8.40
2008,12,28,07,27,8.40
2008,12,28,07,28,12.90
2008,12,28,07,29,11.00
2008,12,28,07,30,11.40
2008,12,28,07,31,9.60
2008,12,28,07,32,10.80
2008,12,28,07,33,9.40
2008,12,28,07,34,9.50
2008,12,28,07,35,9.40
2008,12,28,07,36,8.70
2008,12,28,07,37,6.60
2008,12,28,07,38,8.70
2008,12,28,07,39,6.50
2008,12,28,07,40,5.30
2008,12,28,07,41,6.10
2008,12,28,07,42,9.10
2008,12,28,07,43,9.30
2008,12,28,07,44,8.40
2008,12,28,07,45,7.20
2008,12,28,07,46,10.00
2008,12,28,07,47,7.50
2008,12,28,07,48,7.40
2008,12,28,07,49,9.20
2008,12,28,07,50,7.30
2008,12,28,07,51,7.20
2008,12,28,07,52,6.70
2008,12,28,07,53,6.90
2008,12,28,07,54,9.20
2008,12,28,07,55,8.70
2008,12,28,07,56,8.80
2008,12,28,07,57,8.10
2008,12,28,07,58,10.60
2008,12,28,07,59,6.80
2008,12,28,08,00,7.50
2008,12,28,08,01,11.00
2008,12,28,08,02,9.80
2008,12,28,08,03,8.90
2008,12,28,08,04,5.90
2008,12,28,08,05,8.00
2008,12,28,08,06,8.10
2008,12,28,08,07,7.10
2008,12,28,08,08,8.60
2008,12,28,08,09,6.90
2008,12,28,08,10,8.60
2008,12,28,08,11,10.80
2008,12,28,08,12,6.10
2008,12,28,08,13,7.70
2008,12,28,08,14,5.70
2008,12,28,08,15,6.00
2008,12,28,08,16,6.50
2008,12,28,08,17,9.60
2008,12,28,08,18,9.00
2008,12,28,08,19,10.50
2008,12,28,08,20,5.50
2008,12,28,08,21,6.60
2008,12,28,08,22,7.80
2008,12,28,08,23,11.40
2008,12,28,08,24,12.30
2008,12,28,08,25,8.90
2008,12,28,08,26,6.60
2008,12,28,08,27,8.00
2008,12,28,08,28,7.30
2008,12,28,08,29,12.70
2008,12,28,08,30,7.60
2008,12,28,08,31,10.00
2008,12,28,08,32,9.00
2008,12,28,08,33,6.70
2008,12,28,08,34,5.00
2008,12,28,08,35,8.00
2008,12,28,08,36,7.90
2008,12,28,08,37,9.00
2008,12,28,08,38,11.90
2008,12,28,08,39,11.40
2008,12,28,08,40,8.70
2008,12,28,08,41,5.90
2008,12,28,08,42,10.30
2008,12,28,08,43,9.70
2008,12,28,08,44,9.00
2008,12,28,08,45,9.90
2008,12,28,08,46,7.00
2008,12,28,08,47,9.70
2008,12,28,08,48,8.90
2008,12,28,08,49,9.10
2008,12,28,08,50,4.90
2008,12,28,08,51,11.60
2008,12,28,08,52,6.70
2008,12,28,08,53,9.60
2008,12,28,08,54,11.30
2008,12,28,08,55,7.90
2008,12,28,08,56,11.30
2008,12,28,08,57,8.90
2008,12,28,08,58,5.10
2008,12,28,08,59,7.30
2008,12,28,09,00,8.30
2008,12,28,09,01,7.20
2008,12,28,09,02,6.40
2008,12,28,09,03,6.00
2008,12,28,09,04,5.20
2008,12,28,09,05,4.70
2008,12,28,09,06,3.80
2008,12,28,09,07,5.50
2008,12,28,09,08,5.80
2008,12,28,09,09,8.90
2008,12,28,09,10,6.30
2008,12,28,09,11,5.20
2008,12,28,09,12,3.80
2008,12,28,09,13,5.60
2008,12,28,09,14,2.00
2008,12,28,09,15,1.90
2008,12,28,09,16,1.20
2008,12,28,09,17,0.50
2008,12,28,09,18,0.00
2008,12,28,09,19,0.00
2008,12,28,09,20,0.00
2008,12,28,09,21,0.80
2008,12,28,09,22,0.20
2008,12,28,09,23,0.10
2008,12,28,09,24,1.50
2008,12,28,09,25,0.40
2008,12,28,09,26,0.00
2008,12,28,09,27,0.00
2008,12,28,09,28,0.00
2008,12,28,09,29,0.00
2008,12,28,09,30,0.00
2008,12,28,09,31,0.00
2008,12,28,09,32,0.00
2008,12,28,09,33,2.60
2008,12,28,09,34,2.20
2008,12,28,09,35,0.20
2008,12,28,09,36,1.90
2008,12,28,09,37,1.90
2008,12,28,09,38,4.30
2008,12,28,09,39,0.20
2008,12,28,09,40,0.00
2008,12,28,09,41,0.00
2008,12,28,09,42,0.60
2008,12,28,09,43,1.20
2008,12,28,09,44,0.00
2008,12,28,09,45,0.30
2008,12,28,09,46,0.40
2008,12,28,09,47,0.00
2008,12,28,09,48,0.00
2008,12,28,09,49,0.10
2008,12,28,09,50,0.30
2008,12,28,09,51,0.10
2008,12,28,09,52,2.20
2008,12,28,09,53,2.20
2008,12,28,09,54,1.40
2008,12,28,09,55,0.30
2008,12,28,09,56,2.70
2008,12,28,09,57,3.40
2008,12,28,09,58,0.30
2008,12,28,09,59,2.20
2008,12,28,10,00,2.90
2008,12,28,10,01,1.40
2008,12,28,10,02,3.80
2008,12,28,10,03,1.80
2008,12,28,10,04,4.20
2008,12,28,10,05,3.10
2008,12,28,10,06,5.40
2008,12,28,10,07,11.60
2008,12,28,10,08,9.30
2008,12,28,10,09,3.40
2008,12,28,10,10,2.90
2008,12,28,10,11,4.00
2008,12,28,10,12,0.80
2008,12,28,10,13,5.70
2008,12,28,10,14,4.60
2008,12,28,10,15,5.50
2008,12,28,10,16,3.40
2008,12,28,10,17,5.40
2008,12,28,10,18,4.70
2008,12,28,10,19,6.00
2008,12,28,10,20,6.50
2008,12,28,10,21,9.00
2008,12,28,10,22,11.00
2008,12,28,10,23,12.60
2008,12,28,10,24,6.70
2008,12,28,10,25,4.10
2008,12,28,10,26,2.70
2008,12,28,10,27,4.90
2008,12,28,10,28,7.50
2008,12,28,10,29,3.80
2008,12,28,10,30,11.90
2008,12,28,10,31,8.00
2008,12,28,10,32,7.50
2008,12,28,10,33,13.40
2008,12,28,10,34,18.00
2008,12,28,10,35,8.60
2008,12,28,10,36,8.30
2008,12,28,10,37,10.60
2008,12,28,10,38,12.30
2008,12,28,10,39,7.30
2008,12,28,10,40,7.30
2008,12,28,10,41,11.50
2008,12,28,10,42,7.90
2008,12,28,10,43,13.00
2008,12,28,10,44,15.20
2008,12,28,10,45,8.30
2008,12,28,10,46,7.50
2008,12,28,10,47,8.00
2008,12,28,10,48,6.60
2008,12,28,10,49,4.10
2008,12,28,10,50,4.00
2008,12,28,10,51,12.20
2008,12,28,10,52,12.10
2008,12,28,10,53,13.00
2008,12,28,10,54,10.90
2008,12,28,10,55,15.60
2008,12,28,10,56,15.80
2008,12,28,10,57,8.00
2008,12,28,10,58,4.00
2008,12,28,10,59,8.40
2008,12,28,11,00,10.10
2008,12,28,11,01,6.70
2008,12,28,11,02,13.00
2008,12,28,11,03,11.20
2008,12,28,11,04,9.60
2008,12,28,11,05,8.60
2008,12,28,11,06,7.20
2008,12,28,11,07,5.70
2008,12,28,11,08,10.30
2008,12,28,11,09,14.50
2008,12,28,11,10,14.20
2008,12,28,11,11,9.70
2008,12,28,11,12,9.50
2008,12,28,11,13,8.20
2008,12,28,11,14,6.30
2008,12,28,11,15,4.90
2008,12,28,11,16,8.40
2008,12,28,11,17,9.60
2008,12,28,11,18,7.90
2008,12,28,11,19,6.40
2008,12,28,11,20,16.40
2008,12,28,11,21,13.00
2008,12,28,11,22,10.20
2008,12,28,11,23,11.30
2008,12,28,11,24,7.30
2008,12,28,11,25,7.60
2008,12,28,11,26,11.30
2008,12,28,11,27,8.60
2008,12,28,11,28,9.80
2008,12,28,11,29,8.90
2008,12,28,11,30,7.90
2008,12,28,11,31,6.40
2008,12,28,11,32,8.60
2008,12,28,11,33,4.60
2008,12,28,11,34,7.20
2008,12,28,11,35,9.20
2008,12,28,11,36,7.90
2008,12,28,11,37,11.90
2008,12,28,11,38,5.70
2008,12,28,11,39,16.70
2008,12,28,11,40,15.10
2008,12,28,11,41,16.20
2008,12,28,11,42,18.40
2008,12,28,11,43,16.10
2008,12,28,11,44,14.30
2008,12,28,11,45,9.40
2008,12,28,11,46,14.80
2008,12,28,11,47,15.30
2008,12,28,11,48,8.70
2008,12,28,11,49,14.10
2008,12,28,11,50,12.60
2008,12,28,11,51,10.10
2008,12,28,11,52,15.30
2008,12,28,11,53,13.20
2008,12,28,11,54,8.80
2008,12,28,11,55,13.40
2008,12,28,11,56,9.20
2008,12,28,11,57,10.10
2008,12,28,11,58,12.80
2008,12,28,11,59,23.60
2008,12,28,12,00,20.90
2008,12,28,12,01,15.30
2008,12,28,12,02,11.30
2008,12,28,12,03,20.40
2008,12,28,12,04,14.10
2008,12,28,12,05,17.90
2008,12,28,12,06,20.30
2008,12,28,12,07,14.10
2008,12,28,12,08,10.90
2008,12,28,12,09,11.10
2008,12,28,12,10,21.30
2008,12,28,12,11,19.30
2008,12,28,12,12,22.00
2008,12,28,12,13,12.30
2008,12,28,12,14,19.20
2008,12,28,12,15,19.80
2008,12,28,12,16,19.70
2008,12,28,12,17,15.90
2008,12,28,12,18,20.00
2008,12,28,12,19,14.60
2008,12,28,12,20,16.30
2008,12,28,12,21,22.90
2008,12,28,12,22,19.50
2008,12,28,12,23,17.40
2008,12,28,12,24,11.90
2008,12,28,12,25,14.50
2008,12,28,12,26,15.90
2008,12,28,12,27,18.00
2008,12,28,12,28,16.70
2008,12,28,12,29,13.00
2008,12,28,12,30,12.70
2008,12,28,12,31,17.80
2008,12,28,12,32,15.70
2008,12,28,12,33,10.50
2008,12,28,12,34,11.80
2008,12,28,12,35,18.00
2008,12,28,12,36,17.20
2008,12,28,12,37,18.20
2008,12,28,12,38,15.30
2008,12,28,12,39,18.20
2008,12,28,12,40,19.80
2008,12,28,12,41,17.20
2008,12,28,12,42,12.60
2008,12,28,12,43,13.80
2008,12,28,12,44,16.40
2008,12,28,12,45,18.10
2008,12,28,12,46,16.20
2008,12,28,12,47,13.80
2008,12,28,12,48,17.90
2008,12,28,12,49,22.70
2008,12,28,12,50,19.20
2008,12,28,12,51,14.30
2008,12,28,12,52,21.50
2008,12,28,12,53,20.10
2008,12,28,12,54,20.70
2008,12,28,12,55,17.70
2008,12,28,12,56,10.90
2008,12,28,12,57,17.70
2008,12,28,12,58,17.90
2008,12,28,12,59,19.60
2008,12,28,13,00,20.00
2008,12,28,13,01,20.80
2008,12,28,13,02,17.10
2008,12,28,13,03,18.60
2008,12,28,13,04,19.10
2008,12,28,13,05,15.00
2008,12,28,13,06,16.70
2008,12,28,13,07,16.60
2008,12,28,13,08,10.50
2008,12,28,13,09,12.30
2008,12,28,13,10,13.50
2008,12,28,13,11,13.30
2008,12,28,13,12,16.10
2008,12,28,13,13,20.50
2008,12,28,13,14,15.40
2008,12,28,13,15,14.10
2008,12,28,13,16,11.60
2008,12,28,13,17,18.60
2008,12,28,13,18,16.30
2008,12,28,13,19,18.00
2008,12,28,13,20,19.60
2008,12,28,13,21,17.30
2008,12,28,13,22,15.60
2008,12,28,13,23,14.30
2008,12,28,13,24,13.40
2008,12,28,13,25,16.50
2008,12,28,13,26,13.40
2008,12,28,13,27,14.90
2008,12,28,13,28,14.90
2008,12,28,13,29,11.40
2008,12,28,13,30,12.10
2008,12,28,13,31,13.50
2008,12,28,13,32,13.00
2008,12,28,13,33,11.70
2008,12,28,13,34,19.90
2008,12,28,13,35,16.00
2008,12,28,13,36,16.20
2008,12,28,13,37,13.80
2008,12,28,13,38,15.80
2008,12,28,13,39,14.10
2008,12,28,13,40,15.90
2008,12,28,13,41,15.20
2008,12,28,13,42,17.10
2008,12,28,13,43,13.60
2008,12,28,13,44,17.40
2008,12,28,13,45,17.50
2008,12,28,13,46,12.90
2008,12,28,13,47,10.50
2008,12,28,13,48,10.70
2008,12,28,13,49,13.80
2008,12,28,13,50,9.60
2008,12,28,13,51,12.70
2008,12,28,13,52,14.90
2008,12,28,13,53,10.00
2008,12,28,13,54,17.10
2008,12,28,13,55,12.20
2008,12,28,13,56,12.10
2008,12,28,13,57,14.80
2008,12,28,13,58,10.70
2008,12,28,13,59,10.90
2008,12,28,14,00,14.80
2008,12,28,14,01,12.20
2008,12,28,14,02,13.70
2008,12,28,14,03,13.50
2008,12,28,14,04,12.70
2008,12,28,14,05,17.80
2008,12,28,14,06,13.70
2008,12,28,14,07,17.10
2008,12,28,14,08,12.60
2008,12,28,14,09,15.20
2008,12,28,14,10,17.20
2008,12,28,14,11,16.20
2008,12,28,14,12,12.40
2008,12,28,14,13,18.00
2008,12,28,14,14,19.40
2008,12,28,14,15,16.30
2008,12,28,14,16,14.80
2008,12,28,14,17,15.40
2008,12,28,14,18,17.50
2008,12,28,14,19,15.20
2008,12,28,14,20,14.20
2008,12,28,14,21,14.10
2008,12,28,14,22,18.60
2008,12,28,14,23,17.90
2008,12,28,14,24,10.50
2008,12,28,14,25,19.60
2008,12,28,14,26,21.50
2008,12,28,14,27,15.70
2008,12,28,14,28,19.20
2008,12,28,14,29,16.00
2008,12,28,14,30,20.10
2008,12,28,14,31,24.50
2008,12,28,14,32,17.20
2008,12,28,14,33,12.50
2008,12,28,14,34,18.50
2008,12,28,14,35,13.90
2008,12,28,14,36,15.00
2008,12,28,14,37,18.40
2008,12,28,14,38,16.20
2008,12,28,14,39,17.30
2008,12,28,14,40,23.40
2008,12,28,14,41,19.50
2008,12,28,14,42,18.40
2008,12,28,14,43,19.80
2008,12,28,14,44,20.80
2008,12,28,14,45,18.30
2008,12,28,14,46,15.50
2008,12,28,14,47,20.60
2008,12,28,14,48,16.80
2008,12,28,14,49,19.60
2008,12,28,14,50,15.00
2008,12,28,14,51,12.20
2008,12,28,14,52,15.20
2008,12,28,14,53,22.30
2008,12,28,14,54,16.30
2008,12,28,14,55,19.70
2008,12,28,14,56,24.10
2008,12,28,14,57,24.20
2008,12,28,14,58,17.30
2008,12,28,14,59,16.20
2008,12,28,15,00,16.00
2008,12,28,15,01,19.30
2008,12,28,15,02,17.70
2008,12,28,15,03,18.00
2008,12,28,15,04,16.30
2008,12,28,15,05,13.50
2008,12,28,15,06,16.90
2008,12,28,15,07,17.90
2008,12,28,15,08,13.80
2008,12,28,15,09,18.90
2008,12,28,15,10,23.00
2008,12,28,15,11,15.90
2008,12,28,15,12,13.60
2008,12,28,15,13,16.30
2008,12,28,15,14,19.90
2008,12,28,15,15,16.70
2008,12,28,15,16,13.10
2008,12,28,15,17,14.00
2008,12,28,15,18,16.80
2008,12,28,15,19,20.70
2008,12,28,15,20,10.90
2008,12,28,15,21,11.60
2008,12,28,15,22,9.90
2008,12,28,15,23,15.00
2008,12,28,15,24,8.60
2008,12,28,15,25,11.70
2008,12,28,15,26,11.90
2008,12,28,15,27,8.70
2008,12,28,15,28,9.70
2008,12,28,15,29,9.10
2008,12,28,15,30,12.40
2008,12,28,15,31,10.90
2008,12,28,15,32,12.50
2008,12,28,15,33,9.30
2008,12,28,15,34,11.90
2008,12,28,15,35,16.30
2008,12,28,15,36,8.10
2008,12,28,15,37,11.30
2008,12,28,15,38,17.30
2008,12,28,15,39,15.50
2008,12,28,15,40,17.00
2008,12,28,15,41,13.80
2008,12,28,15,42,14.90
2008,12,28,15,43,14.80
2008,12,28,15,44,17.40
2008,12,28,15,45,17.20
2008,12,28,15,46,16.10
2008,12,28,15,47,11.10
2008,12,28,15,48,9.80
2008,12,28,15,49,7.80
2008,12,28,15,50,10.70
2008,12,28,15,51,8.10
2008,12,28,15,52,11.50
2008,12,28,15,53,5.10
2008,12,28,15,54,9.00
2008,12,28,15,55,8.80
2008,12,28,15,56,9.50
2008,12,28,15,57,8.00
2008,12,28,15,58,9.30
2008,12,28,15,59,10.70
2008,12,28,16,00,5.50
2008,12,28,16,01,11.50
2008,12,28,16,02,11.30
2008,12,28,16,03,7.70
2008,12,28,16,04,15.10
2008,12,28,16,05,12.50
2008,12,28,16,06,9.50
2008,12,28,16,07,8.60
2008,12,28,16,08,10.00
2008,12,28,16,09,9.30
2008,12,28,16,10,7.70
2008,12,28,16,11,11.00
2008,12,28,16,12,8.40
2008,12,28,16,13,6.80
2008,12,28,16,14,10.40
2008,12,28,16,15,8.40
2008,12,28,16,16,14.00
2008,12,28,16,17,12.60
2008,12,28,16,18,10.90
2008,12,28,16,19,9.50
2008,12,28,16,20,7.10
2008,12,28,16,21,8.90
2008,12,28,16,22,14.60
2008,12,28,16,23,16.50
2008,12,28,16,24,10.20
2008,12,28,16,25,11.20
2008,12,28,16,26,12.60
2008,12,28,16,27,11.20
2008,12,28,16,28,6.40
2008,12,28,16,29,8.70
2008,12,28,16,30,13.50
2008,12,28,16,31,9.10
2008,12,28,16,32,14.70
2008,12,28,16,33,9.50
2008,12,28,16,34,7.60
2008,12,28,16,35,7.90
2008,12,28,16,36,8.20
2008,12,28,16,37,9.40
2008,12,28,16,38,5.50
2008,12,28,16,39,5.60
2008,12,28,16,40,5.20
2008,12,28,16,41,3.70
2008,12,28,16,42,4.30
2008,12,28,16,43,8.10
2008,12,28,16,44,5.90
2008,12,28,16,45,4.00
2008,12,28,16,46,2.90
2008,12,28,16,47,5.40
2008,12,28,16,48,8.60
2008,12,28,16,49,8.70
2008,12,28,16,50,5.20
2008,12,28,16,51,7.20
2008,12,28,16,52,8.00
2008,12,28,16,53,6.70
2008,12,28,16,54,3.10
2008,12,28,16,55,6.00
2008,12,28,16,56,5.20
2008,12,28,16,57,5.80
2008,12,28,16,58,3.80
2008,12,28,16,59,2.70
2008,12,28,17,00,3.60
2008,12,28,17,01,2.40
2008,12,28,17,02,5.20
2008,12,28,17,03,1.10
2008,12,28,17,04,2.10
2008,12,28,17,05,2.50
2008,12,28,17,06,0.90
2008,12,28,17,07,2.80
2008,12,28,17,08,5.40
2008,12,28,17,09,6.40
2008,12,28,17,10,3.70
2008,12,28,17,11,5.60
2008,12,28,17,12,8.10
2008,12,28,17,13,4.40
2008,12,28,17,14,6.40
2008,12,28,17,15,3.20
2008,12,28,17,16,4.90
2008,12,28,17,17,6.10
2008,12,28,17,18,3.40
2008,12,28,17,19,4.30
2008,12,28,17,20,3.30
2008,12,28,17,21,3.20
2008,12,28,17,22,0.10
2008,12,28,17,23,2.70
2008,12,28,17,24,6.60
2008,12,28,17,25,3.60
2008,12,28,17,26,3.80
2008,12,28,17,27,3.50
2008,12,28,17,28,3.10
2008,12,28,17,29,7.20
2008,12,28,17,30,3.50
2008,12,28,17,31,6.50
2008,12,28,17,32,4.20
2008,12,28,17,33,3.50
2008,12,28,17,34,7.30
2008,12,28,17,35,6.80
2008,12,28,17,36,3.30
2008,12,28,17,37,1.30
2008,12,28,17,38,2.20
2008,12,28,17,39,3.60
2008,12,28,17,40,3.10
2008,12,28,17,41,1.70
2008,12,28,17,42,0.00
2008,12,28,17,43,0.00
2008,12,28,17,44,0.00
2008,12,28,17,45,0.00
2008,12,28,17,46,2.00
2008,12,28,17,47,0.80
2008,12,28,17,48,0.20
2008,12,28,17,49,0.70
2008,12,28,17,50,0.00
2008,12,28,17,51,1.00
2008,12,28,17,52,1.90